Flag for U.S.A. Weather past 2 weeks in Warren, Michigan, U.S.A.

Now
44 °F

Broken clouds.


Feels Like: 35 °F
Forecast: 21 / 43 °F
Wind: 24 mph from South

Location: Detroit City Airport

Current Time: Mar 29, 2015 at 5:43:02 PM

Latest Report: Mar 29, 2015 at 4:53 PM


Visibility: 10 mi

Pressure: 29.90 "Hg

Humidity: 38%

Dew point: 20 °F

Location of WarrenLocation

Historic Weather in Warren — Graph

°F

Warren temperature yesterday

Maximum temperature yesterday: 38 °F (at 5:53 PM)
Minimum temperature yesterday: 18 °F (at 12:53 AM)
Average temperature yesterday: 27 °F

Past Weeks' High & Low Weather Summary

 TemperatureHumidityPressure
High62 °F (Mar 16, 2:53 PM)89% (Mar 25, 10:53 AM)30.40 "Hg (Mar 25, 10:53 AM)
Low18 °F (Mar 27, 11:53 PM)22% (Mar 17, 1:53 PM)29.70 "Hg (Mar 17, 12:53 AM)
Average37 °F55%30.14 "Hg
* Reported Mar 14 3:53 PM — Mar 29 3:53 PM, Warren, Weather by CustomWeather, © 2015

Note: Actual official high and low records may vary slightly from our data, if they occured in-between our weather recording intervals... More about our weather records

Advertising

Warren weather history for previous 24 hours

 ConditionsComfort  
Time TempWeatherWind HumidityBarometerVisibility
3:53 PM
Sun, Mar 29
43 °FSunny.24 mph37%29.97 "Hg10 mi
2:53 PM43 °FSunny.25 mph35%30.04 "Hg10 mi
1:53 PM41 °FSunny.22 mph36%30.10 "Hg10 mi
12:53 PM40 °FSunny.16 mph38%30.17 "Hg10 mi
11:53 AM38 °FSunny.17 mph39%30.22 "Hg10 mi
10:53 AM37 °FSunny.20 mph39%30.25 "Hg10 mi
9:53 AM34 °FSunny.12 mph48%30.28 "Hg10 mi
8:53 AM30 °FSunny.9 mph59%30.29 "Hg10 mi
7:53 AM25 °FClear.6 mph63%30.29 "Hg10 mi
6:53 AM25 °FClear.5 mph58%30.28 "Hg10 mi
5:53 AM25 °FClear.5 mph60%30.28 "Hg10 mi
4:53 AM24 °FClear.No wind68%30.29 "Hg10 mi
3:53 AM24 °FClear.3 mph71%30.30 "Hg10 mi
2:53 AM24 °FClear.3 mph71%30.30 "Hg10 mi
1:53 AM26 °FClear.3 mph66%30.32 "Hg10 mi
12:53 AM27 °FClear.No wind63%30.34 "Hg10 mi
11:53 PM
Sat, Mar 28
27 °FClear.No wind61%30.33 "Hg10 mi
10:53 PM28 °FClear.3 mph58%30.33 "Hg10 mi
9:53 PM28 °FClear.5 mph58%30.32 "Hg10 mi
8:53 PM30 °FClear.6 mph56%30.32 "Hg10 mi
7:53 PM32 °FSunny.8 mph50%30.30 "Hg10 mi
6:53 PM35 °FSunny.6 mph36%30.29 "Hg10 mi
5:53 PM38 °FPassing clouds.7 mph33%30.27 "Hg10 mi
Weather by CustomWeather, © 2015

See weather overviewHow to use our weather pages